Location: 22
(39.7117°N, 89.5929°W)
Time: 02:27:57
(UTC-06:00)

X-37B - Visible Passes

Search period start: 06 December 2022 00:00
Search period end: 16 December 2022 00:00
Orbit: 277 x 277 km, 45.0° (Epoch: 01 November)

Date Brightness Start Highest point End Pass type
(mag) Time Alt. Az. Time Alt. Az. Time Alt. Az.
06 Dec 1.9 17:29:08 10° SSW 17:30:58 18° SE 17:32:02 15° ESE visible
07 Dec 0.9 17:29:16 10° SW 17:31:32 35° SSE 17:32:48 20° E visible
08 Dec -0.1 17:29:44 10° WSW 17:32:11 73° SSE 17:33:32 23° ENE visible
09 Dec 0.1 17:30:27 10° WSW 17:32:52 59° NNW 17:34:13 22° NE visible
10 Dec 0.9 17:31:17 10° W 17:33:36 37° NNW 17:34:52 20° NE visible
11 Dec 1.3 17:32:12 10° WNW 17:34:23 27° NNW 17:35:31 19° NNE visible
12 Dec 1.6 17:33:08 10° WNW 17:35:12 23° N 17:36:09 18° NNE visible
13 Dec 1.6 17:34:00 10° NW 17:36:02 22° N 17:36:50 18° NNE visible
14 Dec 1.5 17:34:47 10° NW 17:36:51 23° N 17:37:33 20° NNE visible
15 Dec 1.2 17:35:29 10° NW 17:37:39 26° N 17:38:21 23° NE visible
